[[{"header":{"parameterUnit":"m.s-1","parameterCategory":1,"la1":30.2991,"la2":30.254,"lo1":-89.0895,"lo2":-89.0444,"dy":0.0017,"dx":0.0017,"nx":28,"ny":28,"refTime":"2024-07-25T03:00:00:Z","depth":0,"parameterNumber":2,"parameterNumberName":"U-component_of_WINDS"},"data":[0,0,0,0,0,0,0,0,0,0,0,0,0,0,0,0,0,0,0,0,0,0,0,0,0,0,0,0,0,0,0,0,0,0,0,0,0,0,0,0,0,0,0,0,0,0,0,0,0,0,0,0,0,0,0,0,0,0,-0.383,-0.3829,0,-0.3706,-0.3705,-0.3703,-0.3614,-0.3613,-0.3612,-0.3611,-0.3484,-0.3481,-0.3478,0,0,0,0,0,0,0,0,0,0,0,0,0,-0.3991,-0.3988,-0.3831,-0.3829,-0.3827,-0.3706,-0.3705,-0.3703,-0.3614,-0.3613,-0.3612,-0.3611,-0.3484,-0.3481,-0.3478,0,0,0,0,0,0,0,0,0,0,0,0,0,-0.3899,-0.3988,-0.3831,-0.3768,-0.3761,-0.3707,-0.3705,-0.3702,-0.3614,-0.3613,-0.3612,-0.3611,-0.3486,-0.3482,-0.3478,-0.3475,0,0,-0.3465,-0.3463,0,0,0,0,0,0,0,0,-0.3905,-0.3894,-0.3779,-0.3772,-0.3765,-0.3674,-0.3714,-0.3626,-0.3614,-0.367,-0.3611,-0.361,-0.3548,-0.3539,-0.3518,-0.3469,-0.3463,-0.3465,-0.3462,-0.3461,-0.3459,0,0,0,0,0,0,0,-0.3911,-0.3898,-0.3781,-0.3777,-0.3769,-0.3747,-0.3732,-0.3697,-0.3617,-0.3665,-0.3658,-0.3645,-0.3544,-0.3522,-0.3514,-0.3461,-0.3465,-0.3461,-0.3459,-0.3457,-0.3405,-0.3406,0,0,0,0,0,0,-0.3927,-0.3904,-0.3785,-0.3777,-0.3833,-0.3745,-0.3729,-0.3704,-0.3617,-0.3602,-0.3646,-0.3641,-0.3529,-0.3519,-0.3509,-0.3501,-0.3461,-0.3457,-0.3454,-0.3404,-0.3405,-0.3406,0,0,0,0,0,0,-0.3931,-0.3918,-0.379,-0.3839,-0.3821,-0.3743,-0.3716,-0.3703,-0.368,-0.3602,-0.3587,-0.3638,-0.3528,-0.3515,-0.3484,-0.3495,-0.3455,-0.3451,-0.3403,-0.3404,-0.3406,-0.3484,0,0,0,0,0,0,-0.3936,-0.3919,-0.3918,-0.384,-0.3819,-0.3768,-0.3717,-0.3701,-0.3674,-0.3666,-0.3591,-0.3578,-0.3526,-0.3491,-0.348,-0.3489,-0.3448,-0.3401,-0.3403,-0.3405,-0.348,-0.3488,-0.3494,0,0,0,0,0,-0.3942,-0.3944,-0.3918,-0.3904,-0.3815,-0.3768,-0.3756,-0.3697,-0.3675,-0.3673,-0.3622,-0.358,-0.3496,-0.3488,-0.3476,-0.3483,-0.34,-0.3403,-0.3405,-0.3476,-0.3486,-0.3494,0,0,0,0,0,0,-0.4025,-0.3933,-0.3903,-0.388,-0.3833,-0.3753,-0.3748,-0.3709,-0.3667,-0.3662,-0.359,-0.3574,-0.3551,-0.3514,-0.3507,-0.3476,-0.3443,-0.3443,-0.3501,-0.351,-0.3517,-0.3527,-0.3445,0,0,0,0,0,-0.4041,-0.4011,-0.3932,-0.3919,-0.3897,-0.3827,-0.3805,-0.3763,-0.3711,-0.3691,-0.3638,-0.359,-0.3552,-0.3529,-0.349,-0.3474,-0.3457,-0.3473,-0.348,-0.3487,-0.3488,-0.3477,-0.3483,-0.3414,-0.3414,-0.3414,0,0,-0.4073,-0.4019,-0.4004,-0.3934,-0.3893,-0.3864,-0.3811,-0.3782,-0.3759,-0.3686,-0.3654,-0.3614,-0.3555,-0.3532,-0.3519,-0.3501,-0.3503,-0.349,-0.3495,-0.3492,-0.348,-0.3487,-0.3493,-0.3415,-0.3415,-0.3415,0,0,-0.4116,-0.4072,-0.4057,-0.4017,-0.3955,-0.3908,-0.3905,-0.3832,-0.3803,-0.3769,-0.3714,-0.3686,-0.3623,-0.3584,-0.3555,-0.3585,-0.3544,-0.3574,-0.3612,-0.3603,-0.3608,-0.3613,-0.3624,-0.3629,-0.3575,-0.3575,-0.3575,0,-0.4164,-0.4117,-0.4054,-0.4028,-0.4,-0.3933,-0.3917,-0.3881,-0.381,-0.3792,-0.3772,-0.3691,-0.3647,-0.3614,-0.3621,-0.36,-0.3594,-0.3582,-0.3613,-0.3617,-0.362,-0.363,-0.3634,-0.3579,-0.3579,-0.3578,-0.3578,0,-0.4179,-0.4148,-0.4143,-0.4076,-0.4047,-0.4026,-0.396,-0.3938,-0.39,-0.3856,-0.3823,-0.3768,-0.3717,-0.3706,-0.3667,-0.3667,-0.3658,-0.3626,-0.3591,-0.3632,-0.364,-0.3643,-0.3585,-0.3584,-0.3582,-0.3581,0,0,-0.4271,-0.417,-0.4169,-0.4138,-0.4066,-0.404,-0.4017,-0.3967,-0.395,-0.3904,-0.3883,-0.3831,-0.3802,-0.377,-0.3726,-0.3718,-0.3746,-0.3687,-0.3685,-0.3701,-0.3743,-0.3768,-0.3773,-0.3719,-0.3719,-0.3719,-0.3748,0,-0.4303,-0.4258,-0.4201,-0.4175,-0.4146,-0.4082,-0.4062,-0.4015,-0.3974,-0.3943,-0.3896,-0.3861,-0.3825,-0.3805,-0.3794,-0.3745,-0.3753,-0.3742,-0.3699,-0.3698,-0.3716,-0.3777,-0.3802,-0.3832,-0.3751,-0.3751,-0.3752,0,-0.4335,-0.4292,-0.4263,-0.4194,-0.4179,-0.4162,-0.4112,-0.4084,-0.403,-0.4,-0.3965,-0.3919,-0.3891,-0.386,-0.3821,-0.3815,-0.3794,-0.3767,-0.3767,-0.3761,-0.3728,-0.3773,-0.384,-0.3845,-0.3756,-0.3755,-0.3755,0,-0.4405,-0.434,-0.4315,-0.4291,-0.4209,-0.4198,-0.4164,-0.4108,-0.4083,-0.4039,-0.4022,-0.3976,-0.3951,-0.3916,-0.3859,-0.3841,-0.3827,-0.3791,-0.3802,-0.3803,-0.3801,-0.3802,-0.3867,-0.3788,-0.3788,-0.3788,-0.3788,0,-0.4448,-0.4433,-0.4346,-0.433,-0.4312,-0.4247,-0.423,-0.419,-0.4142,-0.4117,-0.4059,-0.4038,-0.3963,-0.3933,-0.3888,-0.3863,-0.3852,-0.3828,-0.3816,-0.3833,-0.3836,-0.3818,-0.3815,-0.3789,-0.3788,-0.3788,-0.3788,0,-0.4524,-0.4465,-0.4433,-0.4358,-0.4339,-0.4329,-0.4265,-0.4247,-0.4203,-0.4173,-0.4162,-0.4092,-0.4053,-0.3993,-0.3936,-0.3906,-0.3889,-0.3869,-0.3908,-0.39,-0.3915,-0.3915,-0.3971,-0.3975,-0.3893,-0.3894,-0.3895,0,-0.4555,-0.4542,-0.4466,-0.4446,-0.4413,-0.4381,-0.4354,-0.429,-0.4264,-0.4202,-0.4193,-0.415,-0.4112,-0.4054,-0.3998,-0.3954,-0.3933,-0.3956,-0.3926,-0.3944,-0.3934,-0.3936,-0.3934,-0.3963,-0.3964,-0.3965,-0.3966,0,-0.4617,-0.4588,-0.4552,-0.4506,-0.4476,-0.4437,-0.4394,-0.4381,-0.4307,-0.4282,-0.4242,-0.4213,-0.4155,-0.4113,-0.4062,-0.4026,-0.3984,-0.3976,-0.3976,-0.3993,-0.4017,-0.4005,-0.3927,-0.3975,-0.3974,-0.3973,-0.3973,-0.3972,-0.4671,-0.4657,-0.4602,-0.4564,-0.4525,-0.4487,-0.4467,-0.442,-0.4386,-0.4334,-0.4298,-0.4261,-0.4207,-0.4135,-0.4101,-0.4071,-0.4052,-0.4053,-0.4053,-0.4054,-0.4061,-0.4021,-0.4061,-0.4061,-0.4061,-0.406,-0.406,0,-0.4731,-0.4692,-0.4658,-0.46,-0.4571,-0.4533,-0.4485,-0.4462,-0.443,-0.4384,-0.4348,-0.4303,-0.4262,-0.4203,-0.4158,-0.4146,-0.4125,-0.4136,-0.4137,-0.4129,-0.408,-0.4084,-0.4154,-0.4154,-0.4154,-0.4154,-0.4154,-0.4153,-0.4759,-0.4733,-0.4698,-0.4653,-0.4614,-0.4577,-0.4552,-0.4517,-0.448,-0.4432,-0.4398,-0.436,-0.4309,-0.426,-0.4221,-0.4205,-0.4191,-0.4208,-0.4186,-0.4141,-0.4133,-0.4124,-0.4128,-0.4206,-0.4206,-0.4238,-0.4238,-0.4239]},{"header":{"parameterUnit":"m.s-1","parameterCategory":1,"la1":30.2991,"la2":30.254,"lo1":-89.0895,"lo2":-89.0444,"dy":0.0017,"dx":0.0017,"nx":28,"ny":28,"refTime":"2024-07-25T03:00:00:Z","depth":0,"parameterNumber":3,"parameterNumberName":"V-component_of_WINDS"},"data":[0,0,0,0,0,0,0,0,0,0,0,0,0,0,0,0,0,0,0,0,0,0,0,0,0,0,0,0,0,0,0,0,0,0,0,0,0,0,0,0,0,0,0,0,0,0,0,0,0,0,0,0,0,0,0,0,0,0,2.8024,2.8024,0,2.8019,2.8019,2.8018,2.8013,2.8013,2.8013,2.8013,2.8006,2.8006,2.8005,0,0,0,0,0,0,0,0,0,0,0,0,0,2.803,2.803,2.8024,2.8024,2.8024,2.8019,2.8019,2.8018,2.8013,2.8013,2.8013,2.8013,2.8006,2.8006,2.8005,0,0,0,0,0,0,0,0,0,0,0,0,0,2.8026,2.803,2.8024,2.8021,2.8021,2.8019,2.8019,2.8018,2.8013,2.8013,2.8013,2.8013,2.8006,2.8006,2.8005,2.8006,0,0,2.8005,2.8005,0,0,0,0,0,0,0,0,2.8027,2.8026,2.8022,2.8021,2.8021,2.8017,2.8018,2.8014,2.8013,2.8016,2.8013,2.8013,2.8009,2.8009,2.8008,2.8006,2.8005,2.8005,2.8005,2.8005,2.8005,0,0,0,0,0,0,0,2.8027,2.8026,2.8022,2.8022,2.8021,2.802,2.8019,2.8017,2.8013,2.8016,2.8015,2.8015,2.8009,2.8008,2.8008,2.8005,2.8005,2.8005,2.8004,2.8004,2.8003,2.8003,0,0,0,0,0,0,2.8028,2.8027,2.8022,2.8022,2.8024,2.802,2.8019,2.8018,2.8013,2.8012,2.8015,2.8015,2.8009,2.8008,2.8007,2.8008,2.8005,2.8004,2.8004,2.8003,2.8003,2.8004,0,0,0,0,0,0,2.8028,2.8028,2.8023,2.8024,2.8023,2.802,2.8019,2.8018,2.8017,2.8013,2.8012,2.8015,2.8008,2.8008,2.8007,2.8007,2.8004,2.8004,2.8003,2.8003,2.8003,2.8009,0,0,0,0,0,0,2.8028,2.8028,2.8028,2.8024,2.8023,2.8022,2.8019,2.8018,2.8017,2.8016,2.8012,2.8011,2.8008,2.8007,2.8006,2.8007,2.8004,2.8003,2.8003,2.8003,2.8008,2.8009,2.8009,0,0,0,0,0,2.8029,2.8029,2.8028,2.8027,2.8024,2.8022,2.8021,2.8018,2.8017,2.8017,2.8014,2.8011,2.8008,2.8007,2.8006,2.8007,2.8003,2.8003,2.8003,2.8008,2.8009,2.8009,0,0,0,0,0,0,2.8033,2.8029,2.8027,2.8027,2.8025,2.8021,2.8021,2.8019,2.8017,2.8017,2.8013,2.8012,2.8011,2.8009,2.8008,2.8007,2.8005,2.8005,2.8009,2.8009,2.801,2.801,2.8004,0,0,0,0,0,2.8034,2.8033,2.8029,2.8029,2.8029,2.8025,2.8024,2.8022,2.802,2.8019,2.8016,2.8013,2.8011,2.801,2.8008,2.8008,2.8007,2.8008,2.8009,2.8009,2.8009,2.8009,2.801,2.8004,2.8004,2.8004,0,0,2.8035,2.8033,2.8033,2.803,2.8028,2.8027,2.8024,2.8023,2.8023,2.8018,2.8017,2.8015,2.8012,2.8011,2.8011,2.801,2.8011,2.801,2.801,2.801,2.801,2.801,2.8011,2.8004,2.8004,2.8004,0,0,2.8038,2.8036,2.8036,2.8035,2.8032,2.803,2.803,2.8027,2.8026,2.8024,2.8021,2.802,2.8017,2.8015,2.8014,2.8017,2.8014,2.8016,2.8019,2.8019,2.8019,2.802,2.8021,2.8021,2.8016,2.8016,2.8016,0,2.804,2.8039,2.8036,2.8036,2.8035,2.8032,2.8032,2.803,2.8027,2.8026,2.8025,2.8021,2.8019,2.8018,2.8019,2.8018,2.8018,2.8016,2.8019,2.802,2.802,2.8021,2.8021,2.8017,2.8017,2.8016,2.8016,0,2.8042,2.8042,2.8042,2.8039,2.8038,2.8038,2.8035,2.8035,2.8033,2.8031,2.803,2.8027,2.8025,2.8024,2.8022,2.8023,2.8022,2.802,2.8018,2.8021,2.8022,2.8022,2.8017,2.8017,2.8017,2.8017,0,0,2.8047,2.8044,2.8044,2.8043,2.804,2.8039,2.8039,2.8037,2.8037,2.8035,2.8034,2.8032,2.803,2.8029,2.8027,2.8027,2.8029,2.8025,2.8025,2.8026,2.803,2.8031,2.8032,2.8028,2.8028,2.8028,2.803,0,2.8049,2.8049,2.8046,2.8046,2.8046,2.8043,2.8042,2.8041,2.8039,2.8038,2.8036,2.8034,2.8032,2.8031,2.8031,2.8029,2.803,2.8029,2.8027,2.8027,2.8027,2.8032,2.8034,2.8036,2.8031,2.8031,2.8031,0,2.8052,2.805,2.805,2.8048,2.8048,2.8048,2.8046,2.8045,2.8043,2.8042,2.804,2.8038,2.8037,2.8035,2.8034,2.8034,2.8033,2.8032,2.8032,2.8031,2.8029,2.8032,2.8037,2.8037,2.8031,2.8031,2.8031,0,2.8055,2.8053,2.8053,2.8053,2.805,2.805,2.8049,2.8047,2.8046,2.8044,2.8044,2.8042,2.8041,2.804,2.8037,2.8036,2.8036,2.8034,2.8035,2.8035,2.8035,2.8035,2.804,2.8035,2.8035,2.8035,2.8035,0,2.8058,2.8058,2.8055,2.8055,2.8055,2.8052,2.8052,2.8051,2.8049,2.8049,2.8046,2.8046,2.8042,2.8041,2.8039,2.8039,2.8038,2.8037,2.8036,2.8037,2.8037,2.8036,2.8036,2.8035,2.8035,2.8035,2.8035,0,2.8061,2.8059,2.8059,2.8057,2.8056,2.8056,2.8054,2.8054,2.8052,2.8052,2.8051,2.8049,2.8048,2.8045,2.8043,2.8041,2.8041,2.804,2.8042,2.8042,2.8043,2.8043,2.8047,2.8048,2.8043,2.8043,2.8043,0,2.8063,2.8063,2.8061,2.8061,2.806,2.8059,2.8058,2.8056,2.8055,2.8053,2.8053,2.8052,2.8051,2.8049,2.8047,2.8046,2.8044,2.8046,2.8044,2.8045,2.8044,2.8044,2.8044,2.8046,2.8047,2.8047,2.8047,0,2.8066,2.8065,2.8065,2.8064,2.8063,2.8062,2.8061,2.8061,2.8058,2.8058,2.8057,2.8056,2.8054,2.8053,2.8051,2.805,2.8048,2.8047,2.8048,2.8048,2.8049,2.8049,2.8043,2.8047,2.8047,2.8047,2.8047,2.8047,2.8069,2.8069,2.8067,2.8067,2.8066,2.8065,2.8065,2.8063,2.8063,2.8061,2.806,2.8059,2.8057,2.8055,2.8054,2.8053,2.8052,2.8052,2.8052,2.8052,2.8053,2.805,2.8053,2.8053,2.8053,2.8053,2.8053,0,2.8072,2.8071,2.807,2.8069,2.8069,2.8067,2.8066,2.8066,2.8065,2.8064,2.8063,2.8062,2.8061,2.8059,2.8058,2.8058,2.8057,2.8057,2.8057,2.8057,2.8054,2.8054,2.8058,2.8058,2.8058,2.8058,2.8058,2.8058,2.8073,2.8073,2.8073,2.8072,2.8071,2.8071,2.807,2.8069,2.8068,2.8068,2.8067,2.8066,2.8064,2.8063,2.8062,2.8061,2.8061,2.8062,2.8061,2.8058,2.8057,2.8057,2.8057,2.8062,2.8062,2.8064,2.8064,2.8064]}]]